Location: Albany
(35.0170°S, 117.8920°E)
Time: 17:34:26
(UTC+08:00)

Vanguard 3 - All Passes

Search period start: 24 January 2021 00:00
Search period end: 03 February 2021 00:00
Orbit: 508 x 3261 km, 33.3° (Epoch: 23 January)

Date Brightness Start Highest point End Pass type
(mag) Time Alt. Az. Time Alt. Az. Time Alt. Az.
24 Jan - 10:50:14 10° N 11:00:45 17° NE 11:10:21 10° ENE daylight
24 Jan - 12:58:23 10° NNW 13:15:54 43° NNE 13:28:33 10° E daylight
24 Jan - 15:13:36 10° WNW 15:31:03 70° NNE 15:41:16 10° E daylight
24 Jan - 17:31:32 10° W 17:45:12 82° N 17:52:33 10° E daylight
24 Jan - 19:48:46 10° W 19:57:34 49° NNW 20:02:44 10° NE visible
25 Jan - 11:43:35 10° NNW 11:59:32 31° NE 12:12:44 10° E daylight
25 Jan - 13:56:21 10° NW 14:14:57 60° NNE 14:27:05 10° E daylight
25 Jan - 16:13:33 10° WNW 16:29:54 81° N 16:39:00 10° E daylight
25 Jan - 18:31:36 10° W 18:43:26 71° NNW 18:49:51 10° ENE daylight
25 Jan - 20:48:41 10° W 20:54:38 24° NW 20:58:44 10° NNE visible
26 Jan - 10:30:45 10° N 10:43:16 21° NE 10:54:55 10° E daylight
26 Jan - 12:40:04 10° NW 12:58:30 48° NNE 13:12:16 10° E daylight
26 Jan - 14:55:37 10° WNW 15:14:02 75° NNE 15:25:07 10° E daylight
26 Jan - 17:13:51 10° W 17:28:35 82° N 17:36:34 10° E daylight
26 Jan - 19:31:30 10° W 19:41:06 46° NNW 19:46:41 10° NE visible
27 Jan - 09:24:16 10° NE 09:27:16 10° NE 09:30:16 10° ENE daylight
27 Jan - 11:25:06 10° NNW 11:41:58 36° NE 11:56:26 10° E daylight
27 Jan - 13:38:17 10° NW 13:57:38 65° NNE 14:10:47 10° E daylight
27 Jan - 15:55:43 10° W 16:13:04 83° N 16:22:55 10° E daylight
27 Jan - 18:14:02 10° W 18:26:53 67° NNW 18:33:52 10° ENE daylight
27 Jan - 20:31:48 10° W 20:38:04 22° NW 20:42:23 10° N visible
28 Jan - 10:11:54 10° N 10:25:39 24° NE 10:38:54 10° E daylight
28 Jan - 12:21:58 10° NW 12:40:57 53° NNE 12:55:49 10° E daylight
28 Jan - 14:37:43 10° WNW 14:56:54 79° NNE 15:08:53 10° E daylight
28 Jan - 16:56:06 10° W 17:11:53 80° N 17:20:33 10° ENE daylight
28 Jan - 19:14:07 10° W 19:24:32 43° NNW 19:30:35 10° NE daylight
29 Jan - 09:02:19 10° NNE 09:09:45 13° NE 09:17:21 10° ENE daylight
29 Jan - 11:06:55 10° NNW 11:24:16 41° NE 11:39:55 10° E daylight
29 Jan - 13:20:22 10° WNW 13:40:13 70° NNE 13:54:22 10° E daylight
29 Jan - 15:37:54 10° W 15:56:07 84° N 16:06:47 10° E daylight
29 Jan - 17:56:23 10° W 18:10:14 64° NNW 18:17:49 10° ENE daylight
29 Jan - 20:14:51 10° W 20:21:23 21° NW 20:25:58 10° N visible
30 Jan - 09:53:29 10° N 10:07:57 28° NE 10:22:31 10° E daylight
30 Jan - 12:04:04 10° NW 12:23:17 58° NNE 12:39:13 10° E daylight
30 Jan - 14:19:54 10° WNW 14:39:40 81° N 14:52:34 10° E daylight
30 Jan - 16:38:18 10° W 16:55:04 79° NNW 17:04:27 10° ENE daylight
30 Jan - 18:56:40 10° W 19:07:49 40° NW 19:14:23 10° NNE daylight
31 Jan - 08:42:45 10° NNE 08:52:08 16° NE 09:02:05 10° E daylight
31 Jan - 10:49:00 10° NNW 11:06:29 45° NE 11:23:12 10° E daylight
31 Jan - 13:02:37 10° WNW 13:22:43 74° NNE 13:37:51 10° E daylight
31 Jan - 15:20:06 10° W 15:39:04 84° N 15:50:35 10° E daylight
31 Jan - 17:38:39 10° W 17:53:26 61° NNW 18:01:42 10° NE daylight
31 Jan - 19:57:51 10° W 20:04:35 19° NW 20:09:25 10° N visible
01 Feb - 09:35:25 10° NNW 09:50:08 32° NE 10:05:50 10° E daylight
01 Feb - 11:46:21 10° NW 12:05:34 63° NNE 12:22:30 10° E daylight
01 Feb - 14:02:11 10° WNW 14:22:20 83° N 14:36:12 10° E daylight
01 Feb - 16:20:29 10° W 16:38:08 76° NNW 16:48:18 10° ENE daylight
01 Feb - 18:39:08 10° W 18:50:59 38° NW 18:58:05 10° NNE daylight
02 Feb - 08:24:03 10° NNE 08:34:27 19° NE 08:46:00 10° E daylight
02 Feb - 10:31:19 10° NW 10:48:39 49° NNE 11:06:17 10° E daylight
02 Feb - 12:45:00 10° WNW 13:05:07 77° NNE 13:21:14 10° E daylight
02 Feb - 15:02:20 10° W 15:21:54 84° N 15:34:18 10° E daylight
02 Feb - 17:20:53 10° W 17:36:30 58° NNW 17:45:29 10° NE daylight
02 Feb - 19:40:50 10° W 19:47:41 18° NW 19:52:43 10° N visible
